sat.trackr.live / text

‹ back to catalog

STARLINK-36887

NORAD 67950 · 2026-037U

PAYLOAD ACTIVE UNKNOWN

§ Identity

Operator
Country
US
Launch date
2026-02-24
Launch site
AFETR
Launch vehicle
Mass (kg)
RCS (m²)

Purposes: comms

External: N2YO · Heavens-Above · Gunter

§ Orbital elements

Epoch: 2026-05-24T23:29:49.686720Z

Period
94.27 min
Inclination
43.0038°
Eccentricity
0.0001972
Mean motion
15.27591129 rev/d
Perigee alt
481.7 km
Apogee alt
484.4 km
Semi-major
6,861.2 km
B*
5.3240e-4
RAAN
120.2887°
Arg perigee
269.1825°
Mean anomaly
90.8801°
Rev number
1,500

§ Raw data

STARLINK-368871 67950U 26037U   26144.97904730  .00014422  00000+0  53240-3 0  99902 67950  43.0038 120.2887 0001972 269.1825  90.8801 15.27591129 15001

JSON: /api/v1/satellites/67950 · /tle

For live sub-satellite position, see the globe view (requires WebGL).

§ Visibility from observer

Set your observer location to see the next 7 days of passes ≥ 10°. The values pass through the URL so the page stays shareable.

No JS? Fill the form by hand. The geolocation button needs JavaScript.